Preview of NWS' New Version of Forecast
This preview is not operational and should not be used for support decisions.

Regional Weather Roundup (RWR)

Issued by National Weather Service (NWS)

                            
000
ASUS44 KMEG 181300
RWRTN 
TENNESSEE HOURLY STATE WEATHER ROUNDUP
NATIONAL WEATHER SERVICE MEMPHIS TN
800 AM CDT MON MAR 18 2019

TNZ002-004-019-021-049-052-054-088>092-181400-
WEST TENNESSEE
  
CITY           SKY/WX    TMP DP  RH WIND       PRES   REMARKS
MEMPHIS INTL   PTSUNNY   45  30  55 NE10      30.38R                  
NWS MEMPHIS      N/A     43 N/A N/A MISG        N/A                   
JACKSON        CLOUDY    38  32  79 CALM      30.39R                  
DYERSBURG      FAIR      43  32  65 E3        30.40R                  
$$

TNZ008-025-027-028-033-062-065-066-181400-
NORTH MIDDLE TENNESSEE
  
CITY           SKY/WX    TMP DP  RH WIND       PRES   REMARKS
NASHVILLE      FAIR      39  29  67 N6        30.37R WCI  35          
CLARKSVILLE    PTSUNNY   36  28  73 CALM      30.38R                  
SMYRNA         FAIR      38  30  73 N8        30.37R WCI  32          
CROSSVILLE     FAIR      34  26  72 N3        30.29R                  
$$

TNZ061-075-076-078-094-096-097-181400-
SOUTH MIDDLE TENNESSEE
  
CITY           SKY/WX    TMP DP  RH WIND       PRES   REMARKS
FAYETTEVILLE   SUNNY     37  28  70 NE7       30.31R WCI  32          
$$

TNZ017-018-042-046-047-181400-
NORTHEAST TENNESSEE
  
CITY           SKY/WX    TMP DP  RH WIND       PRES   REMARKS
TRI CITIES     FAIR      40  28  62 NW7       30.26R                  
$$

TNZ012-013-036-069-073-074-181400-
CENTRAL EAST TENNESSEE
  
CITY           SKY/WX    TMP DP  RH WIND       PRES   REMARKS
KNOXVILLE      FAIR      41  29  62 N9        30.29R                  
OAK RIDGE      FAIR      41  29  62 NE5       30.32R                  
$$

TNZ083-085-099-181400-
SOUTHEAST TENNESSEE
  
CITY           SKY/WX    TMP DP  RH WIND       PRES   REMARKS
CHATTANOOGA    FAIR      42  28  57 N9        30.32R                  
$$

SKY/WX REPORTED AS FAIR MEANS FEW OR NO CLOUDS BELOW
12 THOUSAND FEET.